Home > Weather > Valencia > Past weeks

Flag for Venezuela Weather for the Past 2 Weeks in Valencia, Venezuela

Now
79 °F

Passing clouds.


Feels Like: 81 °F
Forecast: 69 / 91 °F
Wind: N/A

Location: Valencia Airport

Current Time: Feb 12, 2016 at 12:22:26 AM

Latest Report: Feb 11, 2016 at 10:30 PM


Visibility: N/A

Pressure: 29.98 "Hg

Humidity: 70%

Dew point: 68 °F

Location of ValenciaLocation

Historic Weather in Valencia — Graph

°F

Valencia Temperature Yesterday

Maximum temperature yesterday: 97 °F (at 3:30 PM)
Minimum temperature yesterday: 73 °F (at 6:30 AM)
Average temperature yesterday: 84 °F

High & Low Weather Summary for the Past Weeks

 TemperatureHumidityPressure
High99 °F (Feb 8, 2:30 PM)89% (Feb 8, 6:30 AM)30.09 "Hg (Feb 8, 6:30 AM)
Low72 °F (Jan 30, 6:30 AM)34% (Feb 10, 2:30 PM)29.83 "Hg (Feb 3, 4:30 PM)
Average83 °F62%29.96 "Hg
* Reported Jan 28 4:30 AM — Feb 11 10:30 PM, Valencia, Weather by CustomWeather, © 2016

Note: Actual official high and low records may vary slightly from our data, if they occured in-between our weather recording intervals... More about our weather records

Advertising

Valencia Weather History for the Previous 24 Hours

 ConditionsComfort  
Time TempWeatherWind HumidityBarometerVisibility
10:30 PM
Thu, Feb 11
79 °FPassing clouds.N/A70%29.98 "HgN/A
9:30 PM79 °FPassing clouds.N/A70%29.98 "HgN/A
8:30 PM79 °FPassing clouds.N/A70%29.95 "HgN/A
7:30 PM81 °FPassing clouds.N/A66%29.92 "HgN/A
6:30 PM82 °FPassing clouds.N/A62%29.92 "HgN/A
5:30 PM88 °FScattered clouds.N/A49%29.89 "HgN/A
4:30 PM93 °FScattered clouds.N/A41%29.89 "HgN/A
3:30 PM97 °FPassing clouds.N/A39%29.89 "HgN/A
2:30 PM95 °FPassing clouds.N/A41%29.92 "HgN/A
1:30 PM95 °FPassing clouds.N/A44%29.98 "HgN/A
12:30 PM91 °FPassing clouds.N/A49%30.01 "HgN/A
11:30 AM88 °FPassing clouds.N/A52%30.04 "HgN/A
10:30 AM86 °FPassing clouds.N/A55%30.09 "HgN/A
9:30 AM81 °FSunny.N/A62%30.09 "Hg10 mi
8:30 AM79 °FSunny.N/A65%30.09 "Hg10 mi
7:30 AM73 °FSunny.N/A74%30.07 "Hg10 mi
6:30 AM73 °FSunny.N/A74%30.04 "Hg10 mi
5:30 AM75 °FClear.N/A74%29.98 "Hg10 mi
Weather by CustomWeather, © 2016

See weather overviewHow to use our weather pages